SCP
0 0 0 0 0 0 0 0 0 0 0 0 0 0 0 0 0 0 0 0 0 0 0 0 0 0 0 0 0 0 0 0 0 0 0 0 0 0 0 0 0 0 0 0
0 0 0 0 0 0 0 0 0 0 0 0 0 0 0 0 0 0 0 0 0 0 0 0 0 0 0 0 0 0 0 0 0 0 0 0 0 0 0 0 0 0 0 0
0 0 0 0 0 0 0 0 0 0 0 0 0 0 0 0 0 0 0 0 0 0 0 0 0 0 0 0 0 0 0 0 0 0 0 0 0 0 0 0 0 0 0 0
0 0 0 0 0 0 0 0 0 0 0 0 0 0 0 0 0 0 0 0 0 0 0 0 0 0 0 0 0 0 0 0 0 0 0 0 0 0 0 0 0 0 0 0
0 0 0 0 0 0 0 0 0 0 0 0 0 0 0 0 0 0 0 0 0 0 0 0 0 0 0 0 0 0 -0 -0 0 0 0 0 0 0 -0 -0 -0 0 -0 0
0 0 0 0 0 0 0 0 0 0 0 0 0 0 0 0 0 0 0 0 0 0 0 0 0 -0 0 0 -0 0 -0 -0 -0 -0 0 -0 -0 -0 -0 -0 -0 -0 -0 0
0 0 0 0 0 0 0 0 0 0 0 0 0 0 0 0 0 0 0 0 0 0 0 0 0 0 0 0 0 -0 -0 -0 -0 -0 -0 -0 -0 -0 -0 -0 -0 0 0 0
0 0 0 0 0 0 0 0 0 0 0 0 0 0 0 0 0 0 0 0 0 0 0 0 0 0 0 0 0 -0 -0 -0 -0 -0 0 -0 -0 -0 0 0 0 0 0 0
0 0 0 0 0 0 0 0 0 0 0 0 0 0 0 0 0 0 0 0 0 0 0 0 0 0 -0 -0 -0 -0 -0 0 0 0 0 0 0 0 0 0 0 0 0 0
0 0 0 0 0 0 0 0 0 0 0 0 0 0 0 0 0 0 0 0 0 0 0 0 0 0 -0 -0 0 0 0 0 0 0 0 0 0 0 0 0 0 0 0 0
0 0 0 0 0 0 0 0 0 0 0 0 0 0 0 0 0 0 0 0 0 0 0 0 0 0 0 0 0 0 0 0 0 0 0 0 0 0 0 0 0 0 0 0
0 0 0 0 0 0 0 0 0 0 0 0 0 0 0 0 0 0 0 0 0 0 0 0 0 0 0 0 0 0 0 0 0 0 0 0 0 0 0 0 0 0 0 0
0 0 0 0 0 0 0 0 0 0 0 0 0 0 0 0 0 0 0 0 0 0 0 0 0 0 0 0 0 0 0 0 0 0 0 0 0 0 0 0 0 0 0 0
0 0 0 0 0 0 0 0 0 0 0 0 0 0 -0 0 0 0 -0 0 0 0 0 0 0 0 0 0 0 0 0 0 0 0 0 0 0 0 0 0 0 0 0 0
0 0 0 0 0 0 0 0 0 0 0 0 0 -0 -0 0 0 -0 0 0 0 0 0 0 0 0 0 0 0 0 0 0 0 0 0 0 0 0 0 0 0 0 0 0
0 0 -0 0 0 0 0 0 0 0 0 0 0 0 0 0 0 -0 0 -0 0 0 0 0 0 0 0 0 0 0 0 0 0 0 0 0 0 0 0 0 0 0 0 0
-0 -0 0 0 0 0 0 0 0 0 0 0 -0 0 0 0 -0 0 0 0 0 0 0 0 0 0 0 0 0 0 0 0 0 0 0 0 0 0 0 0 0 0 0 0
0 0 0 0 0 0 0 0 0 0 0 -0 0 0 0 0 0 0 0 0 0 0 0 0 0 0 0 0 0 0 0 0 0 0 0 0 0 0 0 0 0 0 0 0
0 0 0 0 0 0 0 0 0 0 -0 0 0 0 0 0 0 0 0 0 0 0 0 0 0 0 0 0 0 0 0 0 0 0 0 0 0 0 0 0 0 0 0 0
0 0 -0 0 0 0 0 0 0 -0 0 0 0 0 0 0 0 0 0 0 0 0 0 0 0 0 0 0 0 0 0 0 0 0 0 0 0 0 0 0 0 0 0 0
-0 -0 -0 0 0 0 0 0 0 -0 0 0 0 0 0 0 0 0 0 0 0 0 0 0 0 0 0 0 0 0 0 0 0 0 0 0 0 0 0 0 0 0 0 0
0 0 0 0 -0 -0 0 0 0 0 -0 0 0 0 0 0 0 0 0 0 0 0 0 0 0 0 0 0 0 0 0 0 0 0 0 0 0 0 0 0 0 0 0 0
0 0 0 -0 -0 -0 0 -0 0 0 0 0 0 0 0 0 0 0 0 0 0 0 0 0 0 0 0 0 0 0 0 0 0 0 0 0 0 0 0 0 0 0 0 0
0 0 0 -0 -0 -0 -0 0 -0 0 0 0 0 0 0 0 0 0 0 0 0 0 0 0 0 0 0 0 0 0 0 0 0 0 0 0 0 0 0 0 0 0 0 0
0 -0 -0 -0 -0 -0 -0 0 0 0 0 0 0 0 0 0 0 0 0 0 0 0 0 0 0 0 0 0 0 0 0 0 0 0 0 0 0 0 0 0 0 0 0 0
0 0 0 -0 0 0 0 -0 0 0 0 0 0 0 0 0 0 0 0 0 0 0 0 0 0 0 0 0 0 0 0 0 0 0 0 0 0 0 0 0 0 0 0 0
0 0 0 0 0 0 0 -0 0 0 0 0 0 0 0 0 0 0 0 0 0 0 0 0 0 0 0 0 0 0 0 0 0 0 0 0 0 0 0 0 0 0 0 0
Wind_Speed_500mb
24 19 18 23 21 20 21 12 13 21 18 16 12 10 13 12 22 27 18 17 24 32 38 31 22 22 23 24 23 23 22 21 19 23 24 22 21 25 25 25 25 22 18 16
26 27 12 21 9 15 5 7 13 11 9 11 6 3 6 16 17 23 18 22 29 35 26 22 23 25 27 28 27 27 28 26 24 25 23 22 21 24 27 27 27 24 21 20
27 14 16 25 6 4 2 5 13 15 15 9 13 15 19 26 20 20 24 28 32 23 20 23 25 26 27 28 28 29 31 31 32 31 26 20 22 22 25 27 28 28 26 24
18 19 21 12 12 12 18 12 6 7 16 16 16 17 13 17 21 23 28 29 22 19 22 23 24 27 26 28 29 31 35 31 30 29 25 21 20 24 27 29 28 22 20 22
6 8 7 7 6 4 9 3 8 11 12 16 23 26 17 17 22 24 23 18 17 19 22 25 28 27 32 32 34 30 35 30 28 23 20 21 28 30 28 28 20 22 24 20
6 9 5 7 7 4 10 5 12 12 16 23 31 16 23 24 22 19 16 16 19 24 27 26 29 34 34 33 35 33 28 26 25 25 26 28 31 30 26 23 20 18 22 20
4 2 4 6 4 6 8 9 11 13 17 22 20 16 17 17 14 14 15 20 22 27 31 30 28 33 28 31 35 28 23 25 25 27 28 27 31 31 29 25 19 14 13 17
3 6 3 7 5 11 11 10 9 11 16 15 13 12 12 11 12 15 19 24 27 29 30 30 30 26 29 33 31 23 23 24 28 30 33 25 26 23 27 23 20 18 19 20
9 8 8 7 11 11 7 9 10 11 13 11 10 11 12 12 13 17 22 27 27 27 27 27 28 29 30 33 30 26 21 27 32 28 25 27 24 25 30 29 25 23 26 21
8 8 9 11 13 13 14 13 11 12 11 11 14 14 13 13 18 22 27 27 26 28 29 28 24 30 33 31 29 24 24 24 23 25 24 26 29 30 30 27 28 28 29 30
5 9 10 11 12 15 15 13 13 12 12 14 16 13 12 15 20 26 25 25 27 30 29 28 28 27 24 26 28 22 24 24 24 25 30 32 36 38 37 36 35 33 35 34
6 6 6 13 18 15 11 10 10 10 14 17 13 11 11 16 22 22 22 25 27 33 40 31 26 27 28 28 27 31 32 32 33 31 29 32 38 43 44 43 43 40 38 38
8 13 18 26 20 14 12 10 10 13 16 17 12 11 12 14 20 19 21 24 26 28 30 34 31 30 28 29 28 30 31 34 34 35 35 35 36 33 35 41 39 38 37 37
23 25 20 18 11 14 12 12 16 16 18 15 10 10 12 15 16 19 20 21 20 28 36 35 36 35 35 35 34 34 32 34 35 37 40 37 33 28 28 31 35 40 39 38
11 8 14 21 21 17 12 12 15 17 19 13 8 11 14 14 15 19 19 18 19 30 41 45 37 33 24 21 30 33 34 35 38 40 40 41 44 44 43 43 44 47 52 55
19 20 22 20 19 14 11 12 16 22 19 11 8 13 11 13 16 18 21 18 25 34 44 47 45 41 41 38 39 39 37 40 40 38 41 43 44 47 50 50 50 52 49 51
23 18 18 18 16 13 9 14 19 23 16 10 7 11 11 12 14 15 18 17 27 31 41 42 39 45 48 50 43 34 31 40 40 41 45 49 50 51 57 59 59 55 47 60
11 11 12 12 15 15 15 21 25 21 14 8 4 9 10 9 10 12 13 15 17 24 31 37 34 37 41 40 34 29 28 28 39 47 49 54 56 51 51 47 47 43 42 51
13 16 14 16 16 16 22 27 26 18 11 5 6 8 11 9 10 12 13 14 16 18 26 33 33 36 40 39 33 33 29 41 45 44 36 37 33 37 45 44 42 42 42 43
17 17 17 17 17 22 29 30 23 14 9 8 8 13 11 11 12 11 13 14 16 18 27 30 34 32 34 38 42 35 32 30 26 29 33 34 33 37 44 47 42 40 38 38
18 17 17 17 22 28 32 27 20 14 8 7 7 10 11 12 12 14 17 17 15 16 22 26 27 27 30 36 38 37 36 32 30 32 30 30 36 47 46 38 36 35 35 35
17 16 16 20 28 32 30 24 18 13 10 8 8 13 11 12 13 16 15 17 14 16 14 14 17 23 24 30 34 31 34 30 27 28 34 39 39 35 32 30 32 32 33 34
16 17 19 23 29 33 27 21 18 8 5 4 5 13 11 13 15 15 14 17 13 17 13 13 19 20 27 13 21 23 23 22 25 26 26 23 25 25 26 28 28 28 30 31
15 17 20 24 30 31 26 20 13 4 2 3 7 17 16 15 15 13 17 16 18 15 12 10 11 14 20 12 12 16 16 16 23 25 24 22 20 21 22 23 24 25 27 29
15 16 21 25 31 31 24 19 11 5 7 10 18 23 21 15 12 15 13 11 14 14 9 13 12 18 10 11 12 13 13 14 15 15 16 17 18 19 21 22 24 25 26 27
14 13 18 25 29 30 25 20 15 12 14 16 18 17 15 13 13 12 11 12 12 15 12 6 7 11 11 13 13 14 13 15 15 16 16 17 18 19 20 22 24 25 25 25
12 14 19 24 29 31 27 21 19 15 16 15 12 11 10 10 7 8 12 9 11 14 13 10 11 11 9 10 10 11 11 14 18 14 14 16 17 19 23 24 23 22 22 23
Wind_Direction_500mb
288 295 290 299 315 315 299 326 290 351 344 21 26 57 66 28 346 333 323 335 340 337 336 336 348 348 343 338 338 336 327 322 328 330 330 328 340 345 341 336 332 325 319 323
281 275 279 290 322 287 285 324 287 302 359 29 41 115 349 333 334 341 340 341 342 338 345 351 349 347 343 339 339 334 332 329 329 321 321 321 337 338 341 341 337 335 326 323
278 303 297 274 131 311 276 357 336 342 19 346 353 335 338 349 358 350 348 343 340 346 352 349 345 340 332 332 335 332 330 329 323 317 318 319 330 339 342 340 341 338 336 335
279 286 277 68 55 359 346 355 3 22 1 9 358 345 1 15 8 353 342 340 348 355 347 342 335 333 341 342 341 336 333 328 332 326 319 328 339 343 344 341 333 339 330 324
261 289 132 84 320 127 307 49 55 10 355 0 344 306 83 18 5 348 348 2 358 347 341 333 334 337 341 344 334 332 338 338 342 352 353 353 340 333 341 339 332 325 342 328
263 274 321 95 136 223 305 174 44 1 3 349 334 336 44 358 355 1 11 2 353 345 341 339 349 348 344 347 343 339 341 342 349 354 344 353 350 346 347 336 325 328 341 1
129 191 209 52 117 276 274 43 47 20 2 356 360 1 342 350 5 12 9 355 351 347 340 342 341 338 342 342 344 349 357 3 355 353 358 344 345 346 346 352 349 3 17 46
300 239 121 48 183 316 59 75 48 19 8 4 6 4 5 17 25 13 360 353 349 347 346 349 346 347 346 349 355 1 6 8 358 353 349 351 354 7 17 20 40 66 68 62
6 18 93 68 69 89 75 79 40 25 16 23 37 50 65 59 30 9 1 355 352 352 351 352 348 348 352 351 355 355 359 344 352 0 1 3 36 45 35 47 61 67 66 60
298 121 114 119 108 101 98 87 61 43 51 68 86 89 75 49 22 9 2 2 0 355 352 354 349 343 351 348 349 354 0 5 8 13 34 62 56 41 42 55 69 70 70 67
293 119 132 136 132 126 105 84 62 64 82 98 104 86 60 35 19 12 11 14 9 8 2 4 9 16 16 23 26 37 46 38 41 48 77 60 51 52 65 72 75 78 77 73
31 39 15 116 147 134 108 82 69 91 101 112 101 74 46 31 21 22 26 23 27 35 36 38 40 34 34 30 44 47 49 57 69 70 61 76 73 66 66 70 74 73 70 71
85 79 95 127 132 126 111 88 91 114 123 121 95 69 35 31 34 36 36 29 37 35 32 33 40 47 41 33 42 50 62 78 67 63 71 73 72 73 70 66 66 67 67 67
117 106 110 137 148 133 113 99 110 125 131 121 86 43 26 33 48 42 42 39 47 44 38 43 45 47 50 52 55 62 74 75 59 68 75 78 80 75 78 77 74 73 69 67
127 90 112 141 135 133 118 115 125 132 136 113 75 39 28 70 63 48 46 54 62 60 53 50 42 43 52 40 57 60 73 67 71 74 76 79 83 83 81 78 77 79 82 82
129 123 128 139 147 142 131 135 140 143 137 115 70 34 56 91 75 59 59 76 82 69 52 44 43 50 64 66 72 76 71 78 76 77 85 84 83 84 85 84 88 91 85 82
139 149 156 157 160 153 146 146 147 147 138 121 70 52 96 104 76 71 75 92 79 72 54 46 67 59 53 55 68 67 67 76 82 83 83 85 84 84 88 89 87 79 64 71
137 154 159 169 164 157 150 148 148 144 139 143 74 82 97 103 85 90 96 101 93 70 49 44 60 56 47 52 62 68 72 79 85 87 88 86 78 78 83 79 76 66 67 65
149 127 128 139 148 149 151 147 146 144 141 120 51 117 108 103 107 110 114 116 115 82 63 56 64 49 44 55 74 82 87 92 87 82 74 66 70 71 69 66 69 72 71 70
122 121 126 130 135 143 147 148 144 135 119 81 87 127 114 109 119 112 127 121 111 107 77 64 59 51 57 65 86 88 85 82 84 83 80 75 75 78 83 87 79 75 73 68
127 127 129 129 138 143 148 148 142 129 103 80 113 138 129 125 130 119 126 132 126 104 79 56 56 60 65 75 81 82 90 90 84 79 82 85 94 97 86 69 68 67 66 64
130 132 135 140 144 147 151 151 147 132 111 81 100 143 132 138 140 131 130 134 138 117 82 64 76 83 70 75 82 81 82 79 80 85 97 97 95 82 71 71 68 68 68 70
130 136 139 146 153 155 154 157 153 137 117 86 107 159 138 143 141 141 139 140 128 119 98 94 89 96 88 74 89 88 82 84 88 92 87 90 81 74 76 75 72 73 71 69
131 134 143 150 157 159 161 167 165 172 258 292 166 152 133 132 152 139 155 155 149 129 135 120 97 111 100 102 71 89 88 86 88 85 80 84 84 81 79 76 75 77 72 72
137 143 149 158 161 163 166 171 165 138 99 108 144 145 139 138 135 140 140 159 164 133 141 122 87 103 106 121 118 118 117 112 107 100 96 94 93 91 87 87 88 84 80 76
142 147 162 164 168 170 167 168 159 135 136 119 127 141 145 142 140 131 133 160 171 148 151 141 112 114 118 120 122 120 113 109 107 114 104 101 105 99 96 98 95 91 84 77
149 156 164 169 175 173 173 171 165 149 150 147 143 156 172 173 184 182 191 173 166 172 178 178 157 146 145 142 139 128 127 142 131 121 111 109 110 112 115 108 101 91 81 72
Wind_Speed_850mb
24 19 18 23 21 20 21 12 13 21 18 16 12 10 13 12 22 27 18 17 24 32 38 31 22 22 23 24 23 23 22 21 19 23 24 22 21 25 25 25 25 22 18 16
26 27 12 21 9 15 5 7 13 11 9 11 6 3 6 16 17 23 18 22 29 35 26 22 23 25 27 28 27 27 28 26 24 25 23 22 21 24 27 27 27 24 21 20
27 14 16 25 6 4 2 5 13 15 15 9 13 15 19 26 20 20 24 28 32 23 20 23 25 26 27 28 28 29 31 31 32 31 26 20 22 22 25 27 28 28 26 24
18 19 21 12 12 12 18 12 6 7 16 16 16 17 13 17 21 23 28 29 22 19 22 23 24 27 26 28 29 31 35 31 30 29 25 21 20 24 27 29 28 22 20 22
6 8 7 7 6 4 9 3 8 11 12 16 23 26 17 17 22 24 23 18 17 19 22 25 28 27 32 32 34 30 35 30 28 23 20 21 28 30 28 28 20 22 24 20
6 9 5 7 7 4 10 5 12 12 16 23 31 16 23 24 22 19 16 16 19 24 27 26 29 34 34 33 35 33 28 26 25 25 26 28 31 30 26 23 20 18 22 20
4 2 4 6 4 6 8 9 11 13 17 22 20 16 17 17 14 14 15 20 22 27 31 30 28 33 28 31 35 28 23 25 25 27 28 27 31 31 29 25 19 14 13 17
3 6 3 7 5 11 11 10 9 11 16 15 13 12 12 11 12 15 19 24 27 29 30 30 30 26 29 33 31 23 23 24 28 30 33 25 26 23 27 23 20 18 19 20
9 8 8 7 11 11 7 9 10 11 13 11 10 11 12 12 13 17 22 27 27 27 27 27 28 29 30 33 30 26 21 27 32 28 25 27 24 25 30 29 25 23 26 21
8 8 9 11 13 13 14 13 11 12 11 11 14 14 13 13 18 22 27 27 26 28 29 28 24 30 33 31 29 24 24 24 23 25 24 26 29 30 30 27 28 28 29 30
5 9 10 11 12 15 15 13 13 12 12 14 16 13 12 15 20 26 25 25 27 30 29 28 28 27 24 26 28 22 24 24 24 25 30 32 36 38 37 36 35 33 35 34
6 6 6 13 18 15 11 10 10 10 14 17 13 11 11 16 22 22 22 25 27 33 40 31 26 27 28 28 27 31 32 32 33 31 29 32 38 43 44 43 43 40 38 38
8 13 18 26 20 14 12 10 10 13 16 17 12 11 12 14 20 19 21 24 26 28 30 34 31 30 28 29 28 30 31 34 34 35 35 35 36 33 35 41 39 38 37 37
23 25 20 18 11 14 12 12 16 16 18 15 10 10 12 15 16 19 20 21 20 28 36 35 36 35 35 35 34 34 32 34 35 37 40 37 33 28 28 31 35 40 39 38
11 8 14 21 21 17 12 12 15 17 19 13 8 11 14 14 15 19 19 18 19 30 41 45 37 33 24 21 30 33 34 35 38 40 40 41 44 44 43 43 44 47 52 55
19 20 22 20 19 14 11 12 16 22 19 11 8 13 11 13 16 18 21 18 25 34 44 47 45 41 41 38 39 39 37 40 40 38 41 43 44 47 50 50 50 52 49 51
23 18 18 18 16 13 9 14 19 23 16 10 7 11 11 12 14 15 18 17 27 31 41 42 39 45 48 50 43 34 31 40 40 41 45 49 50 51 57 59 59 55 47 60
11 11 12 12 15 15 15 21 25 21 14 8 4 9 10 9 10 12 13 15 17 24 31 37 34 37 41 40 34 29 28 28 39 47 49 54 56 51 51 47 47 43 42 51
13 16 14 16 16 16 22 27 26 18 11 5 6 8 11 9 10 12 13 14 16 18 26 33 33 36 40 39 33 33 29 41 45 44 36 37 33 37 45 44 42 42 42 43
17 17 17 17 17 22 29 30 23 14 9 8 8 13 11 11 12 11 13 14 16 18 27 30 34 32 34 38 42 35 32 30 26 29 33 34 33 37 44 47 42 40 38 38
18 17 17 17 22 28 32 27 20 14 8 7 7 10 11 12 12 14 17 17 15 16 22 26 27 27 30 36 38 37 36 32 30 32 30 30 36 47 46 38 36 35 35 35
17 16 16 20 28 32 30 24 18 13 10 8 8 13 11 12 13 16 15 17 14 16 14 14 17 23 24 30 34 31 34 30 27 28 34 39 39 35 32 30 32 32 33 34
16 17 19 23 29 33 27 21 18 8 5 4 5 13 11 13 15 15 14 17 13 17 13 13 19 20 27 13 21 23 23 22 25 26 26 23 25 25 26 28 28 28 30 31
15 17 20 24 30 31 26 20 13 4 2 3 7 17 16 15 15 13 17 16 18 15 12 10 11 14 20 12 12 16 16 16 23 25 24 22 20 21 22 23 24 25 27 29
15 16 21 25 31 31 24 19 11 5 7 10 18 23 21 15 12 15 13 11 14 14 9 13 12 18 10 11 12 13 13 14 15 15 16 17 18 19 21 22 24 25 26 27
14 13 18 25 29 30 25 20 15 12 14 16 18 17 15 13 13 12 11 12 12 15 12 6 7 11 11 13 13 14 13 15 15 16 16 17 18 19 20 22 24 25 25 25
12 14 19 24 29 31 27 21 19 15 16 15 12 11 10 10 7 8 12 9 11 14 13 10 11 11 9 10 10 11 11 14 18 14 14 16 17 19 23 24 23 22 22 23
Wind_Direction_850mb
288 295 290 299 315 315 299 326 290 351 344 21 26 57 66 28 346 333 323 335 340 337 336 336 348 348 343 338 338 336 327 322 328 330 330 328 340 345 341 336 332 325 319 323
281 275 279 290 322 287 285 324 287 302 359 29 41 115 349 333 334 341 340 341 342 338 345 351 349 347 343 339 339 334 332 329 329 321 321 321 337 338 341 341 337 335 326 323
278 303 297 274 131 311 276 357 336 342 19 346 353 335 338 349 358 350 348 343 340 346 352 349 345 340 332 332 335 332 330 329 323 317 318 319 330 339 342 340 341 338 336 335
279 286 277 68 55 359 346 355 3 22 1 9 358 345 1 15 8 353 342 340 348 355 347 342 335 333 341 342 341 336 333 328 332 326 319 328 339 343 344 341 333 339 330 324
261 289 132 84 320 127 307 49 55 10 355 0 344 306 83 18 5 348 348 2 358 347 341 333 334 337 341 344 334 332 338 338 342 352 353 353 340 333 341 339 332 325 342 328
263 274 321 95 136 223 305 174 44 1 3 349 334 336 44 358 355 1 11 2 353 345 341 339 349 348 344 347 343 339 341 342 349 354 344 353 350 346 347 336 325 328 341 1
129 191 209 52 117 276 274 43 47 20 2 356 360 1 342 350 5 12 9 355 351 347 340 342 341 338 342 342 344 349 357 3 355 353 358 344 345 346 346 352 349 3 17 46
300 239 121 48 183 316 59 75 48 19 8 4 6 4 5 17 25 13 360 353 349 347 346 349 346 347 346 349 355 1 6 8 358 353 349 351 354 7 17 20 40 66 68 62
6 18 93 68 69 89 75 79 40 25 16 23 37 50 65 59 30 9 1 355 352 352 351 352 348 348 352 351 355 355 359 344 352 0 1 3 36 45 35 47 61 67 66 60
298 121 114 119 108 101 98 87 61 43 51 68 86 89 75 49 22 9 2 2 0 355 352 354 349 343 351 348 349 354 0 5 8 13 34 62 56 41 42 55 69 70 70 67
293 119 132 136 132 126 105 84 62 64 82 98 104 86 60 35 19 12 11 14 9 8 2 4 9 16 16 23 26 37 46 38 41 48 77 60 51 52 65 72 75 78 77 73
31 39 15 116 147 134 108 82 69 91 101 112 101 74 46 31 21 22 26 23 27 35 36 38 40 34 34 30 44 47 49 57 69 70 61 76 73 66 66 70 74 73 70 71
85 79 95 127 132 126 111 88 91 114 123 121 95 69 35 31 34 36 36 29 37 35 32 33 40 47 41 33 42 50 62 78 67 63 71 73 72 73 70 66 66 67 67 67
117 106 110 137 148 133 113 99 110 125 131 121 86 43 26 33 48 42 42 39 47 44 38 43 45 47 50 52 55 62 74 75 59 68 75 78 80 75 78 77 74 73 69 67
127 90 112 141 135 133 118 115 125 132 136 113 75 39 28 70 63 48 46 54 62 60 53 50 42 43 52 40 57 60 73 67 71 74 76 79 83 83 81 78 77 79 82 82
129 123 128 139 147 142 131 135 140 143 137 115 70 34 56 91 75 59 59 76 82 69 52 44 43 50 64 66 72 76 71 78 76 77 85 84 83 84 85 84 88 91 85 82
139 149 156 157 160 153 146 146 147 147 138 121 70 52 96 104 76 71 75 92 79 72 54 46 67 59 53 55 68 67 67 76 82 83 83 85 84 84 88 89 87 79 64 71
137 154 159 169 164 157 150 148 148 144 139 143 74 82 97 103 85 90 96 101 93 70 49 44 60 56 47 52 62 68 72 79 85 87 88 86 78 78 83 79 76 66 67 65
149 127 128 139 148 149 151 147 146 144 141 120 51 117 108 103 107 110 114 116 115 82 63 56 64 49 44 55 74 82 87 92 87 82 74 66 70 71 69 66 69 72 71 70
122 121 126 130 135 143 147 148 144 135 119 81 87 127 114 109 119 112 127 121 111 107 77 64 59 51 57 65 86 88 85 82 84 83 80 75 75 78 83 87 79 75 73 68
127 127 129 129 138 143 148 148 142 129 103 80 113 138 129 125 130 119 126 132 126 104 79 56 56 60 65 75 81 82 90 90 84 79 82 85 94 97 86 69 68 67 66 64
130 132 135 140 144 147 151 151 147 132 111 81 100 143 132 138 140 131 130 134 138 117 82 64 76 83 70 75 82 81 82 79 80 85 97 97 95 82 71 71 68 68 68 70
130 136 139 146 153 155 154 157 153 137 117 86 107 159 138 143 141 141 139 140 128 119 98 94 89 96 88 74 89 88 82 84 88 92 87 90 81 74 76 75 72 73 71 69
131 134 143 150 157 159 161 167 165 172 258 292 166 152 133 132 152 139 155 155 149 129 135 120 97 111 100 102 71 89 88 86 88 85 80 84 84 81 79 76 75 77 72 72
137 143 149 158 161 163 166 171 165 138 99 108 144 145 139 138 135 140 140 159 164 133 141 122 87 103 106 121 118 118 117 112 107 100 96 94 93 91 87 87 88 84 80 76
142 147 162 164 168 170 167 168 159 135 136 119 127 141 145 142 140 131 133 160 171 148 151 141 112 114 118 120 122 120 113 109 107 114 104 101 105 99 96 98 95 91 84 77
149 156 164 169 175 173 173 171 165 149 150 147 143 156 172 173 184 182 191 173 166 172 178 178 157 146 145 142 139 128 127 142 131 121 111 109 110 112 115 108 101 91 81 72